Regional Weather Roundup
Issued by NWS

Home | Current Version | Previous Version | Graphics & Text | Print | Product List | Glossary On
Versions: 1 2 3 4 5 6 7 8 9 10 11 12 13 14 15 16 17 18 19 20 21 22 23 24 25 26 27 28 29 30 31 32 33 34 35 36 37 38 39 40 41 42 43 44 45 46 47 48 49 50
000
ASUS43 KIND 050259
RWRIN

WEATHER ROUNDUP FOR INDIANA
NATIONAL WEATHER SERVICE INDIANAPOLIS IN
1100 PM EDT SAT JUL 04 2015

NOTE: "FAIR" INDICATES FEW OR NO CLOUDS BELOW 12,000 FEET WITH NO
SIGNIFICANT WEATHER AND/OR OBSTRUCTIONS TO VISIBILITY.

* - STATION DOES NOT REPORT WEATHER SUCH AS PRECIPITATION OR FOG.

+ - STATION NOT QUALITY CONTROLLED BY THE NATIONAL WEATHER SERVICE.
    USE DATA WITH CAUTION...ESPECIALLY DEWPOINT AND RELATIVE
    HUMIDITY OBSERVATIONS.

INZ001>003-010>013-019-020-050400-
NORTHWEST INDIANA

CITY           SKY/WX    TMP DP  RH WIND       PRES   REMARKS
GARY /AIRPORT/ CLEAR    N/A N/A N/A CALM      30.03R
MONTICELLO +   CLEAR     68  65  90 CALM      30.03R FOG
RENSSELAER +   CLEAR     68  64  88 CALM      30.04R

$$

LMZ046-743>745-050400-
SOUTHERN LAKE MICHIGAN

STATION/POSITION TIME  TEMP    WIND        PRES    WAVE
                       AIR SEA DIR/SP/G            HT
                 (UTC) (F)     (DEG/KT/KT) (MB)    (FT)
BURNS HARBOR     0200   71      70/  1/  3 1016.9R
MICHIGAN CITY    0200   72      80/  3/  3   N/A
5NW MICH CITY    0200   67 65  130/  4/  4   N/A     0

$$

INZ004-005-014>016-021>024-050400-
NORTH CENTRAL INDIANA

CITY           SKY/WX    TMP DP  RH WIND       PRES   REMARKS
GOSHEN         CLEAR     65  60  84 CALM      30.04R
SOUTH BEND     CLEAR     66  58  75 CALM      30.04R

$$

INZ006>009-017-018-025>027-050400-
NORTHEAST INDIANA

CITY           SKY/WX    TMP DP  RH WIND       PRES   REMARKS
ANGOLA *+        N/A     64  61  88 CALM      30.05R
FORT WAYNE     CLEAR     67  61  81 CALM      30.05R

$$

INZ028-029-035-036-043>045-051>053-050400-
WEST CENTRAL INDIANA

CITY           SKY/WX    TMP DP  RH WIND       PRES   REMARKS
CRAWFORDSVL +  CLEAR     62  61  97 CALM      30.04S
GREENCASTLE +  MOCLDY    64  57  77 CALM      30.05R
LAFAYETTE      CLEAR     66  62  87 CALM      30.03R
TERRE HAUTE    PTCLDY    68  65  90 CALM      30.03R

$$

INZ030>032-037>040-046>048-054>057-064-065-050400-
CENTRAL INDIANA

CITY           SKY/WX    TMP DP  RH WIND       PRES   REMARKS
FRANKFORT +    CLEAR     67  62  81 CALM      30.06S
GREENWOOD *+   MOCLDY    68  61  77 CALM      30.05
INDIANAPOLIS   MOCLDY    72  58  61 NE7       30.02R
-EAGLE CREEK   PTCLDY    71  60  68 N5        30.03R
KOKOMO *+      CLEAR     66  61  82 CALM      30.05R
MT COMFORT *+  PTCLDY    66 N/A N/A CALM      30.05R
SHELBYVILLE    MOCLDY    69  64  84 CALM      30.03R

$$

INZ033-034-041-042-049-050-058-059-050400-
EAST CENTRAL INDIANA

CITY           SKY/WX    TMP DP  RH WIND       PRES   REMARKS
MUNCIE         CLEAR     68  60  75 CALM      30.06R

$$

INZ060-061-067>069-081>083-085>088-050400-
SOUTHWEST INDIANA

CITY           SKY/WX    TMP DP  RH WIND       PRES   REMARKS
EVANSVILLE     CLOUDY    74  68  81 CALM      30.01R SMOKE
HUNTINGBURG *+ CLOUDY    72  68  88 NE5       30.01S

$$

INZ062-063-066-070>080-084-089>092-050400-
SOUTH CENTRAL AND SOUTHEAST INDIANA

CITY           SKY/WX    TMP DP  RH WIND       PRES   REMARKS
BLOOMINGTON    CLOUDY    68  66  93 CALM      30.03R
MADISON *+     CLOUDY    72  64  78 NE3       30.06R
SEYMOUR +      CLOUDY    72  68  88 CALM      30.02R

$$




USA.gov is the U.S. government's official web portal to all federal, state and local government web resources and services.